Flag for Canada Weather past 2 weeks in Brandon, Manitoba, Canada

Now
75 °F

Fog.


Feels Like: 75 °F
Forecast: 64 / 90 °F
Wind: 9 mph from Southeast

Location: Brandon

Current Time: Sep 3, 2015 at 10:48:39 AM

Latest Report: Sep 3, 2015 at 10:00 AM


Visibility: 5 mi

Pressure: 29.70 "Hg

Humidity: 89%

Dew point: 72 °F

Location of BrandonLocation

Historic Weather in Brandon — Graph

°F

Brandon temperature yesterday

Maximum temperature yesterday: 90 °F (at 5:00 PM)
Minimum temperature yesterday: 55 °F (at 7:00 AM)
Average temperature yesterday: 73 °F

Past Weeks' High & Low Weather Summary

 TemperatureHumidityPressure
High97 °F (Aug 30, 4:00 PM)100% (Aug 21, 6:00 AM)30.24 "Hg (Aug 21, 6:00 AM)
Low39 °F (Aug 25, 6:00 AM)25% (Sep 1, 3:00 PM)29.51 "Hg (Aug 22, 9:00 AM)
Average64 °F75%29.85 "Hg
* Reported Aug 19 9:00 AM — Sep 3 9:00 AM, Brandon, Weather by CustomWeather, © 2015

Note: Actual official high and low records may vary slightly from our data, if they occured in-between our weather recording intervals... More about our weather records

Advertising

Brandon weather history for previous 24 hours

 ConditionsComfort  
Time TempWeatherWind HumidityBarometerVisibility
9:00 AM
Thu, Sep 3
73 °FFog.7 mph94%29.70 "Hg4 mi
8:49 AM73 °FFog.9 mph94%29.71 "Hg4 mi
8:00 AM73 °FMild.9 mph94%29.70 "Hg2 mi
7:00 AM72 °FFog.5 mph94%29.70 "Hg3 mi
6:46 AM72 °FFog.6 mph94%29.70 "Hg3 mi
6:00 AM72 °FPassing clouds.6 mph94%29.69 "Hg15 mi
5:00 AM70 °FPassing clouds.7 mph94%29.69 "Hg15 mi
4:00 AM70 °FPassing clouds.7 mph94%29.69 "Hg15 mi
3:00 AM70 °FMild.6 mph94%29.70 "Hg15 mi
2:00 AM72 °FPassing clouds.12 mph88%29.70 "Hg15 mi
1:00 AM73 °FPassing clouds.9 mph83%29.71 "Hg15 mi
12:00 AM73 °FPassing clouds.8 mph78%29.72 "Hg15 mi
11:00 PM
Wed, Sep 2
73 °FPassing clouds.9 mph78%29.73 "Hg15 mi
10:00 PM77 °FPassing clouds.8 mph69%29.73 "Hg15 mi
9:00 PM81 °FPassing clouds.10 mph62%29.72 "Hg15 mi
8:00 PM82 °FScattered clouds.9 mph62%29.70 "Hg15 mi
7:00 PM88 °FPartly sunny.13 mph52%29.70 "Hg15 mi
6:00 PM90 °FPartly sunny.14 mph52%29.70 "Hg15 mi
5:00 PM90 °FBroken clouds.14 mph49%29.71 "Hg15 mi
4:00 PM88 °FScattered clouds.9 mph55%29.73 "Hg12 mi
3:00 PM86 °FPassing clouds.12 mph55%29.75 "Hg12 mi
2:00 PM84 °FPassing clouds.8 mph58%29.75 "Hg12 mi
1:00 PM84 °FPassing clouds.5 mph55%29.77 "Hg12 mi
12:00 PM81 °FScattered clouds.5 mph58%29.78 "Hg12 mi
11:00 AM75 °FScattered clouds.No wind69%29.79 "Hg12 mi
10:00 AM72 °FPassing clouds.2 mph78%29.80 "Hg10 mi
Weather by CustomWeather, © 2015

See weather overviewHow to use our weather pages